Miscellaneous Local Product
Issued by NWS Hastings, NE

Home | Current Version | Previous Version | Text Only | Print | Product List | Glossary Off
Versions: 1 2 3 4 5 6 7 8 9 10 11 12 13 14 15 16 17 18 19 20 21 22 23 24 25 26 27 28 29 30 31 32 33 34 35 36 37 38 39 40 41 42 43 44 45 46 47 48 49 50

000
AXUS43 KGID 222102
MISGRI

GID CWA HOURLY WEATHER ROUNDUP
NATIONAL WEATHER SERVICE HASTINGS NE
400 PM CDT FRI AUG 22 2014

NOTE: "FAIR" INDICATES FEW OR NO CLOUDS BELOW 12,000 FEET WITH NO
SIGNIFICANT WEATHER AND/OR OBSTRUCTIONS TO VISIBILITY.

...SOUTH CENTRAL NEBRASKA...

CITY           SKY/WX    TMP DP  RH WIND       PRES   REMARKS
GRAND ISLAND   MOSUNNY   88  74  63 E7        29.95S HX  96
HASTINGS       LGT RAIN  82  70  66 E10       29.93F
KEARNEY        MOSUNNY   86  73  66 NE13      29.95F HX  93
ORD            PTSUNNY   86  69  56 E10       29.95F HX  90
YORK           PTSUNNY   86 N/A N/A NE6       29.93S
AURORA         MOSUNNY   86  76  71 NE3       29.93S HX  96
LEXINGTON      MOSUNNY   88  68  50 NE13      29.96F HX  92
HOLDREGE       MOSUNNY   85  71  63 E12       29.95F HX  90
HEBRON         SUNNY     87  69  54 SE5       29.91F HX  91

...NEBRASKA PANHANDLE...

CITY           SKY/WX    TMP DP  RH WIND       PRES   REMARKS
CHADRON        CLOUDY    73  58  59 NE3       30.03F
ALLIANCE       CLOUDY    74  56  53 SE14      30.06F
SCOTTSBLUFF    CLOUDY    76  58  53 SE17G23   30.04F
SIDNEY         LGT RAIN  64  61  90 N3        30.09F

...WESTERN AND NORTH CENTRAL NEBRASKA...

CITY           SKY/WX    TMP DP  RH WIND       PRES   REMARKS
VALENTINE      CLOUDY    80  60  50 S6        30.00F
AINSWORTH      LGT RAIN  75  65  71 CALM      30.03F
ONEILL         CLOUDY    81  71  70 NE7       30.00F
BROKEN BOW     CLOUDY    84  71  65 N12       29.98F
IMPERIAL       PTSUNNY   86  56  35 N15       30.02F
NORTH PLATTE   PTSUNNY   84  59  42 NE14G20   30.00S
MCCOOK         MOSUNNY   89  64  43 NE13      29.96F HX  90

...EASTERN NEBRASKA...

CITY           SKY/WX    TMP DP  RH WIND       PRES   REMARKS
NORFOLK        MOSUNNY   88  70  55 NE9       29.94S HX  93
SO SIOUX CITY  MOSUNNY   89  74  60 NE9       29.92F HX  98
TEKAMAH        PTSUNNY   85  74  69 E3        29.91S HX  92
COLUMBUS       MOSUNNY   91  75  59 NE12      29.93S HX 102
ALBION         MOSUNNY   87  69  55 NE10      29.96R HX  91
OMAHA EPPLEY   PTSUNNY   89  75  63 E9        29.89S HX  99
OFFUTT AFB     PTSUNNY   87  81  80 E7        29.90S HX 104
MILLARD        CLOUDY    89  76  65 E5        29.89S HX 100
LINCOLN        CLOUDY    90  74  59 SE9       29.90S HX  99
NEBRASKA CITY  CLOUDY    80  74  84 S8        29.94S
BEATRICE       CLOUDY    82  74  77 SE3       29.92F
FALLS CITY     CLOUDY    80  77  90 SE9       29.92F

...NORTHERN KANSAS...

CITY           SKY/WX    TMP DP  RH WIND       PRES   REMARKS
GOODLAND       PTSUNNY   85  61  44 E16       30.00F
HILL CITY      MOSUNNY   94  66  39 E9        29.91F HX  97
NORTON         CLEAR     91  55  29 N13G18    29.93S
PHILLIPSBURG   SUNNY     93  66  40 E14       29.89F HX  96
SMITH CENTER   MOSUNNY   90  72  55 E15       29.90F HX  96
BELOIT         SUNNY     91  73  55 E8        29.86F HX 100
HAYS           SUNNY     97  66  36 E9        29.87F HX 100
RUSSELL        SUNNY     98  64  32 S10G17    29.85F HX 100
CONCORDIA      MOSUNNY   89  74  60 SE10      29.89F HX  98
SALINA         PTSUNNY   96  70  42 SE15      29.86F HX 102
TOPEKA         PTSUNNY   91  68  46 S5        29.90F HX  95



USA.gov is the U.S. government's official web portal to all federal, state and local government web resources and services.